Location: Llanfihangel-Ystrad
(52.1833°N, 4.1667°W)
Time: 17:41:06
(UTC+00:00)

Cosmos 1743 Rocket - Pass Details

Date: 17 February 2020
Orbit: 605 x 632 km, 82.6° (Epoch: 31 March)

Event Time Altitude Azimuth Distance (km) Brightness Sun altitude
Rises 05:05:03 0° 350° (N) 2,879 7.0 -22.7°
Reaches altitude 10° 05:07:17 10° 352° (N) 1,968 6.1 -22.3°
Maximum altitude 05:11:38 74° 79° (ENE) 635 3.6 -21.7°
Drops below altitude 10° 05:15:57 10° 164° (SSE) 1,952 6.2 -21.0°
Sets 05:18:09 0° 166° (SSE) 2,852 7.1 -20.7°
